World > North America > United States > Iowa > Carbon  

Carbon, IA Hourly Weather Updates

Feedback E-mail the Weather

Quick Clicks

Carbon, IA Weather Maps

°F °C°F °C
Carbon Weather Map
UTC Time: 7/22/2024, 10:30
Your Time:

Carbon, IA Regional Weather

Expires:202407221100;;094560
ASUS43 KDMX 221006
RWRIA 

WEATHER ROUNDUP FOR IOWA
NATIONAL WEATHER SERVICE DES MOINES IA
500 AM CDT MON JUL 22 2024

NOTE: "FAIR" INDICATES FEW OR NO CLOUDS BELOW 12,000 FEET WITH NO
SIGNIFICANT WEATHER AND/OR OBSTRUCTIONS TO VISIBILITY.

* - THESE STATIONS ARE NOT NWS STATIONS...THUS NOT UNDER NWS
QUALITY CONTROL.  THEY ALSO DO NOT REPORT WEATHER SUCH 
AS PRECIPITATION OR FOG.  


IAZ055>058-069>071-079>083-090>094-221100-
   SOUTHWEST IOWA
  
CITY           SKY/WX    TMP DP  RH WIND       PRES   REMARKS
ATLANTIC *     CLEAR     59  59 100 CALM      30.07S TC  15           
AUDUBON *        N/A     57  55  94 CALM      30.09S TC  14           
CLARINDA *     FOG       63 N/A N/A CALM      30.09S VSB 1/2 TC  17   
COUNCIL BLFS * CLEAR     66  66 100 CALM      30.06S TC  19           
CRESTON *      PTCLDY    63  63 100 CALM      30.08S TC  17           
HARLAN  *      CLEAR     59  59 100 CALM      30.08S FOG     TC  15   
LAMONI         CLEAR     62  62 100 NW5       30.07S TC  17           
RED OAK *      CLEAR     61  61 100 CALM      30.08S TC  16           
SHENANDOAH *   FOG       63  63 100 CALM      30.06S VSB 1/4 TC  17   
$$
 

SKY/WX - Weather  TMP - Temperature  DP - Dew Point  RH - Humidity
WIND - Wind Direction/Speed PRES - Barometric Pressure VSB - Visibility
WCI - Wind Chill Index E13G22 Wind - East Wind 13 mph/Gusts of 22 mph

Trending Headlines

Trending Entertainment Headlines

Carbon Radar Loop

Use the map search tool if you want to place a location marker on the radar map...

Carbon Quick Facts

National Two Day Weather Forecast


E-mail the Carbon Weather Forecast

Voice your opinion or tell us about page issues...